User: anonymous   Login
Location: Ferma
(41.9500°N, 44.5167°E)
Time: 06:36:07
(UTC+00:00)
Language:

SWARM A - Orbit

View from above orbital plane
View from above orbital plane
View from above satellite
View from above satellite

Ground track
Ground track

The orbit data is extracted from the following two-line orbital elements,

1 39452U 13067B   22023.54454842  .00003949  00000-0  77744-4 0  9993
2 39452  87.3584 277.4221 0002373  91.3550 268.7981 15.46875022459541
Epoch (UTC): 23 January 2022 13:04:08
Eccentricity: 0.0002373
inclination: 87.3584°
perigee height: 424 km
apogee height: 427 km
right ascension of ascending node: 277.4221°
argument of perigee: 91.3550°
revolutions per day: 15.46875022
mean anomaly at epoch: 268.7981°
orbit number at epoch: 45954

The dashed part of the orbit path shows where the satellite is in the earth's shadow,  

DLR